sat.trackr.live / text

‹ back to catalog

STARLINK-4217

NORAD 52999 · 2022-076P

PAYLOAD ACTIVE UNKNOWN

§ Identity

Operator
Country
US
Launch date
2022-07-07
Launch site
AFETR
Launch vehicle
Mass (kg)
RCS (m²)

Purposes: comms

External: N2YO · Heavens-Above · Gunter

§ Orbital elements

Epoch: 2026-05-25T04:22:00.474816Z

Period
95.44 min
Inclination
53.2157°
Eccentricity
0.0001408
Mean motion
15.08843951 rev/d
Perigee alt
538.8 km
Apogee alt
540.7 km
Semi-major
6,917.9 km
B*
9.6833e-5
RAAN
110.7318°
Arg perigee
84.0207°
Mean anomaly
276.0945°
Rev number
21,439

§ Raw data

STARLINK-42171 52999U 22076P   26145.18194994  .00001254  00000+0  96833-4 0  99982 52999  53.2157 110.7318 0001408  84.0207 276.0945 15.08843951214390

JSON: /api/v1/satellites/52999 · /tle

For live sub-satellite position, see the globe view (requires WebGL).

§ Visibility from observer

Set your observer location to see the next 7 days of passes ≥ 10°. The values pass through the URL so the page stays shareable.

No JS? Fill the form by hand. The geolocation button needs JavaScript.